Location: Poigny-la-Forêt
(48.6876°N, 1.7701°E)
Time: 04:28:54
(UTC+02:00)

ISS - Pass Details

Date: 25 May 2019
Orbit: 408 x 418 km, 51.6° (Epoch: 16 June)

Event Time Altitude Azimuth Distance (km) Brightness Sun altitude
Rises 23:21:00 0° 281° (W) 2,355 0.8 -12.8°
Reaches altitude 10° 23:23:08 10° 287° (WNW) 1,494 -0.2 -13.0°
Maximum altitude 23:26:25 49° 4° (N) 547 -2.9 -13.3°
Drops below altitude 10° 23:29:42 10° 81° (E) 1,500 -1.2 -13.6°
Enters shadow 23:30:22 - 83° (E) 1,770 -0.8 -13.7°
